Theta_e
294 294 294 294 294 294 295 295 296 296 297 297 298 298 298 299 299 299 299 299 299 299 299 298 298 298 298 299 299 299 299 298 297 297 297 297 296 296 296 295 296 296
294 294 294 293 293 293 293 293 294 294 295 295 296 296 297 297 297 298 298 299 299 299 298 298 298 298 298 298 298 298 298 298 297 297 296 296 296 296 295 295 295 296
293 293 293 293 293 293 293 292 292 293 293 293 294 294 295 295 296 296 297 297 298 298 298 298 297 297 297 297 297 297 297 297 297 297 297 296 296 296 295 295 295 295
290 290 291 291 291 292 292 292 292 292 292 292 292 292 293 293 294 294 295 295 296 296 296 297 297 297 297 297 297 297 297 297 297 296 296 296 296 296 295 295 295 295
288 288 289 289 289 290 290 291 291 291 292 292 292 292 292 292 292 293 293 294 294 295 295 295 296 296 296 296 296 296 296 296 296 296 296 296 296 295 295 295 295 295
287 287 287 287 288 288 288 288 288 289 290 291 291 292 291 291 291 291 292 292 293 293 294 294 295 295 295 295 295 295 296 296 296 296 295 295 295 295 295 295 294 294
287 286 286 286 286 287 287 286 286 287 287 288 289 290 291 291 291 291 291 291 291 292 292 293 294 294 294 295 295 295 295 295 295 295 295 295 295 295 294 294 294 294
286 286 286 286 286 286 286 286 286 285 285 286 286 287 288 289 290 290 291 291 291 291 291 291 292 292 293 294 294 294 294 294 294 294 294 294 294 294 294 294 294 293
286 286 285 285 285 285 285 285 285 285 285 285 285 285 286 286 287 288 288 289 290 291 291 291 290 291 291 292 293 293 294 294 294 294 294 294 294 294 293 293 293 293
287 286 286 285 285 285 285 285 285 285 285 285 285 285 285 285 285 285 286 287 287 289 290 290 291 290 290 290 291 291 292 292 293 293 293 293 293 293 293 293 293 292
287 286 286 286 286 285 285 284 284 284 284 284 284 284 285 285 284 284 285 285 286 287 287 288 289 290 290 290 290 290 290 291 291 292 292 292 292 292 292 292 292 292
287 286 286 286 286 286 285 285 284 284 284 284 284 284 284 284 284 284 284 284 285 286 286 287 287 288 288 289 289 290 290 290 290 290 290 290 291 291 291 291 291 291
286 286 286 286 286 286 285 284 284 284 283 283 283 283 284 284 284 284 284 284 284 284 285 286 286 286 286 287 287 288 289 289 289 289 289 289 289 290 290 290 290 290
285 285 285 285 285 285 284 284 284 284 283 283 283 283 283 283 284 284 284 284 284 284 284 285 285 285 285 286 286 286 287 288 289 289 289 289 289 289 289 289 289 290
285 285 285 285 285 284 284 284 284 283 283 283 283 282 282 283 283 284 284 284 284 284 284 284 284 284 285 285 285 286 286 287 287 287 288 288 289 289 289 289 289 289
285 285 284 284 284 284 284 284 284 284 283 283 283 283 283 283 283 284 284 284 284 283 283 283 283 284 284 284 285 285 285 286 286 286 286 287 288 288 288 289 289 288
285 284 284 284 284 284 284 284 284 284 284 284 284 284 283 283 283 283 283 284 284 283 283 283 283 283 283 283 284 284 284 285 285 285 285 286 287 288 288 288 288 288
284 284 284 284 284 283 283 283 283 283 283 284 284 284 284 283 283 283 283 283 283 283 282 282 283 283 283 283 283 283 284 285 285 285 285 285 285 286 287 288 288 288
284 283 283 283 283 283 283 283 283 283 283 283 283 283 283 282 282 283 283 283 283 282 282 282 282 282 282 282 282 282 283 284 285 284 284 285 285 285 286 287 287 288
284 283 283 283 283 283 282 282 282 282 282 282 282 281 281 281 281 281 282 282 282 282 282 282 282 282 282 281 282 282 282 283 285 285 285 285 285 285 285 286 286 287
283 283 283 282 282 282 282 282 282 282 282 281 281 280 280 280 280 280 280 281 281 281 281 281 282 282 281 281 282 283 282 283 284 285 285 285 284 284 284 284 285 286
282 282 282 282 282 281 281 281 281 281 281 281 280 279 279 279 278 278 279 279 280 280 280 280 281 281 281 281 281 282 283 283 284 284 284 284 284 284 284 284 284 285
280 280 280 280 280 280 279 279 279 279 279 279 279 278 278 278 277 277 277 278 278 279 279 279 279 279 279 279 279 280 282 283 283 284 284 284 283 283 283 283 284 284
278 278 278 278 278 277 277 276 277 277 277 277 277 277 277 276 276 276 276 276 277 277 277 277 277 277 277 278 279 280 281 282 283 283 283 283 283 283 283 283 284 284
275 275 275 275 275 274 274 274 274 274 275 275 275 275 275 275 275 275 275 276 276 276 276 276 275 276 276 276 277 279 280 281 281 282 282 282 282 282 283 283 283 284
272 272 272 272 272 271 271 271 272 272 272 273 273 273 273 274 274 274 274 274 274 274 274 274 274 274 274 275 276 277 278 279 280 280 281 281 282 282 282 283 283 283
Wind_Speed
24 23 21 18 16 14 12 11 11 10 10 11 11 12 12 12 12 12 13 13 14 14 15 16 17 19 21 22 24 26 27 28 30 29 29 32 35 37 37 37 36 35
24 24 23 21 19 18 17 16 14 13 12 12 12 12 12 12 12 12 12 12 13 14 15 17 18 19 20 21 22 24 26 27 29 29 29 30 32 35 37 37 37 36
24 23 22 21 19 18 18 18 16 15 15 14 13 13 14 13 13 12 12 12 13 15 16 17 18 19 20 21 21 23 24 26 28 29 30 30 30 32 35 36 38 38
24 23 22 20 20 19 19 19 18 17 17 16 15 15 15 15 15 14 14 14 14 15 16 17 18 19 20 21 21 22 23 24 26 27 29 30 30 31 32 33 36 38
22 22 22 22 22 22 22 22 21 19 18 17 16 15 15 16 15 15 15 15 15 16 16 17 17 19 20 21 21 22 23 24 25 25 27 29 29 30 31 32 33 36
21 21 21 22 22 22 23 23 22 21 20 19 18 17 16 16 15 15 16 16 16 16 16 16 17 17 18 20 21 22 23 24 24 24 25 27 28 29 30 30 31 33
20 21 21 21 21 21 21 21 21 22 21 20 20 19 18 17 17 16 16 15 16 16 16 16 17 17 17 18 20 22 23 24 24 24 25 26 27 28 29 30 31 32
19 20 20 20 20 20 20 20 20 20 20 21 21 20 19 19 18 18 17 16 16 16 16 16 16 16 17 17 19 21 22 23 24 24 25 25 26 27 28 29 30 31
17 18 18 19 19 20 20 20 20 20 20 20 20 20 19 18 18 18 18 17 17 16 17 17 17 16 16 16 18 20 21 22 23 24 25 25 26 27 27 28 29 30
15 16 16 17 17 18 19 19 20 20 21 21 21 21 20 19 18 17 16 16 16 15 15 16 17 17 16 16 17 18 20 21 22 24 25 25 26 26 26 27 28 28
14 15 16 16 16 17 17 18 18 19 20 21 21 22 21 21 20 19 16 15 15 14 13 13 13 14 16 16 16 17 19 20 21 22 23 24 25 25 26 26 27 28
14 15 16 16 16 17 18 18 19 19 20 21 21 21 22 22 22 21 20 19 18 15 14 13 13 13 14 15 15 15 17 19 20 21 22 23 24 24 25 26 27 28
14 16 17 17 17 18 20 21 21 22 23 23 22 22 23 23 22 23 22 22 22 20 18 17 16 15 15 15 15 15 16 18 19 21 22 23 23 23 24 24 26 26
16 18 18 18 17 19 22 23 23 25 26 26 25 25 25 24 24 24 24 24 24 24 22 21 20 18 18 17 17 17 17 18 19 21 23 24 24 24 23 23 24 26
16 18 19 19 20 23 24 24 25 27 29 30 30 29 28 27 26 26 26 26 27 26 25 25 24 22 21 20 19 19 19 20 21 21 23 24 25 26 25 25 24 25
18 19 20 21 23 25 27 28 29 30 31 33 33 32 32 31 30 29 28 29 29 28 28 28 27 26 24 23 22 22 22 22 23 23 24 24 26 27 27 27 26 26
22 24 24 25 27 28 29 31 31 32 34 35 35 35 35 33 32 31 32 31 30 30 30 30 30 29 28 26 25 25 24 24 25 26 26 26 26 27 28 28 28 28
25 27 28 29 31 32 32 32 33 34 35 36 37 37 37 35 34 34 33 33 31 32 33 32 32 32 31 30 30 29 28 27 27 28 28 27 27 27 28 29 29 29
26 27 29 31 32 34 34 34 34 35 36 37 37 37 37 37 38 37 36 36 34 33 33 34 34 35 35 34 34 33 31 30 30 30 30 29 28 28 28 29 29 29
29 29 30 31 32 33 33 34 35 35 36 37 36 36 36 36 37 37 38 39 38 36 36 36 38 39 38 36 35 35 35 33 32 31 31 31 30 30 29 29 30 29
29 29 30 31 32 32 32 33 34 34 35 36 34 34 34 34 35 36 37 39 40 40 39 40 43 45 42 38 35 34 34 34 33 33 33 33 33 33 32 31 31 31
28 29 31 32 32 31 30 31 32 33 34 35 34 34 34 34 35 35 36 38 39 40 39 41 45 48 46 43 39 35 33 33 33 34 34 34 34 35 34 34 34 32
28 29 30 30 29 28 29 31 32 34 35 34 33 34 35 36 37 37 37 38 39 39 39 40 44 47 47 45 43 40 37 35 35 34 34 35 36 37 37 36 35 34
29 29 29 30 30 31 33 34 35 36 36 35 34 34 37 38 39 39 40 40 40 40 39 39 41 46 48 45 43 41 39 37 36 34 34 35 37 38 38 37 36 36
30 31 32 33 34 35 35 35 37 38 37 37 36 36 38 40 40 40 41 42 41 41 42 41 42 47 49 46 42 39 38 37 35 34 34 36 37 38 38 37 36 37
32 32 33 33 34 35 36 36 36 37 37 37 37 37 38 39 40 39 40 42 43 43 44 44 45 47 50 49 44 41 39 38 37 35 35 37 38 37 36 35 35 37
Wind_Direction
50 48 44 39 31 24 19 14 7 358 350 344 334 324 317 312 314 319 315 298 284 281 284 283 278 272 266 261 256 253 250 248 248 249 247 243 239 237 237 236 234 234
51 49 46 42 35 30 27 22 15 7 355 344 335 326 319 312 304 304 309 305 293 288 290 288 284 278 271 266 261 256 253 250 248 248 248 248 246 242 241 240 240 239
50 49 47 42 37 34 33 30 26 18 5 353 344 334 324 318 311 304 299 299 296 294 293 292 288 283 276 271 266 261 257 254 251 249 248 249 249 247 245 244 244 244
46 46 45 42 40 37 36 35 31 25 17 8 359 349 338 329 321 315 308 301 298 297 295 292 290 286 281 276 270 265 261 258 256 253 252 251 251 250 249 247 247 247
40 41 41 39 38 36 35 34 31 26 21 15 10 4 354 345 335 327 320 313 305 301 299 295 291 288 284 281 275 270 265 262 259 256 254 254 253 253 253 251 249 248
35 35 35 34 33 31 30 30 28 25 23 19 16 12 3 355 349 341 332 324 315 307 301 298 295 291 288 285 280 275 270 266 264 260 257 256 255 255 255 254 253 252
31 30 29 29 28 27 26 25 23 21 19 16 15 13 10 5 360 352 343 333 324 317 310 303 298 295 292 288 283 279 275 271 267 263 260 259 258 257 255 254 254 255
28 27 26 24 23 21 20 19 18 16 14 12 11 10 9 7 3 359 353 346 336 328 321 314 307 300 295 290 285 281 278 275 271 267 264 262 260 258 257 256 255 255
23 22 22 21 19 15 13 11 9 7 6 6 6 6 5 4 2 359 357 354 349 341 334 326 319 311 302 295 288 283 280 277 274 271 269 266 263 261 260 258 257 255
10 10 9 10 9 7 5 4 2 360 359 357 357 357 357 358 357 355 352 351 349 346 341 335 329 322 314 304 294 288 284 282 278 274 271 269 266 266 264 262 259 257
357 356 354 353 353 353 353 353 352 353 353 352 350 348 348 348 347 347 345 341 337 335 332 331 329 325 321 314 305 297 289 286 283 278 274 272 271 269 268 265 263 261
345 344 343 339 336 337 340 339 338 341 344 345 344 341 340 339 338 339 338 335 332 328 322 320 320 318 318 317 314 308 301 294 289 285 280 277 274 273 271 268 266 265
337 335 335 332 327 326 329 329 328 329 333 338 337 335 334 333 331 330 331 331 330 328 324 320 317 314 313 314 314 311 308 304 300 295 291 286 281 277 273 270 268 267
330 330 331 328 322 319 322 324 323 323 326 330 331 330 329 328 326 323 323 324 324 324 323 320 316 313 313 312 312 310 306 304 303 301 298 294 290 285 279 274 270 267
321 324 327 323 318 318 320 321 320 320 323 325 327 327 326 325 322 319 316 315 316 317 317 317 314 312 312 311 308 306 304 300 298 297 296 294 292 291 286 281 276 271
318 321 321 318 316 317 319 318 318 318 319 321 321 322 321 322 319 315 311 310 310 311 310 310 309 307 308 309 306 302 299 297 295 293 293 291 289 288 287 284 281 277
319 320 319 316 315 315 315 314 314 314 314 314 314 314 315 316 314 310 308 306 304 304 304 304 303 301 302 303 302 300 297 295 294 292 290 289 285 282 282 282 281 279
317 316 314 312 311 311 311 311 309 308 307 307 307 308 309 308 307 305 303 301 298 297 298 297 296 295 296 297 298 297 295 292 292 291 289 286 284 281 278 278 277 277
311 309 307 305 305 305 305 305 303 301 301 301 301 302 303 302 301 300 298 296 294 293 293 292 291 290 290 291 293 293 291 290 289 289 286 284 283 282 279 277 275 274
303 302 299 297 297 297 297 296 295 294 294 295 295 297 298 297 296 296 294 292 290 289 289 288 287 287 287 287 287 287 288 287 286 284 283 282 282 282 280 278 275 272
299 298 296 295 294 292 291 290 290 290 289 290 291 292 292 292 292 291 289 287 286 285 285 284 284 285 286 285 282 280 281 282 280 278 277 278 279 280 279 278 276 273
300 299 297 295 294 292 292 292 292 292 291 290 290 290 289 288 287 287 285 284 283 282 280 279 281 282 283 283 281 278 276 277 275 273 273 273 274 276 276 276 276 273
305 304 301 299 299 299 299 298 298 296 294 292 291 289 288 288 287 287 286 284 282 280 278 277 279 281 281 281 281 279 277 274 272 269 269 269 271 273 272 272 271 270
307 306 304 303 303 302 301 300 298 296 293 292 290 288 286 286 286 285 284 282 280 278 277 277 278 280 281 281 280 279 277 274 271 268 267 267 269 270 269 267 266 267
306 305 303 302 301 300 299 298 296 294 292 291 288 286 285 284 283 282 280 279 278 276 276 276 277 278 279 280 279 278 276 274 272 270 268 267 267 267 267 265 263 263
305 304 302 301 301 300 300 298 296 295 294 292 290 287 285 283 282 280 279 278 277 277 276 276 276 277 278 278 278 277 275 274 273 270 267 266 266 265 264 263 261 260